Location: Abraham Lincoln Continuation High School
(33.9711°N, 117.3662°W)
Time: 14:23:29
(UTC+00:00)

Cosmos 1072 Rocket - Pass Details

Date: 21 September 2020
Orbit: 949 x 1008 km, 82.9° (Epoch: 28 October)

Event Time Altitude Azimuth Distance (km) Brightness Sun altitude
Rises 02:34:48 0° 175° (S) 3,635 7.4 -10.5°
Reaches altitude 10° 02:37:17 10° 172° (S) 2,700 6.7 -11.0°
Maximum altitude 02:43:23 63° 92° (E) 1,086 4.5 -12.3°
Drops below altitude 10° 02:49:36 10° 13° (NNE) 2,756 6.8 -13.5°
Sets 02:52:10 0° 11° (N) 3,717 7.5 -14.0°
